| time (UTC) | temp F | wind direction | speed MPH | gust MPH | rain 1hr in | rain 24hr in | rain mn in | humidity % | barometer mb |
| 20260901220007 | 96 | 132 | 3.0 | 10.0 | 0.00 | 0.00 | 0.00 | 33 | 1010.0 |
| 20260901214505 | 97 | 349 | 3.0 | 9.0 | 0.00 | 0.00 | 0.00 | 33 | 1010.1 |
| 20260901213006 | 97 | 65 | 2.0 | 8.0 | 0.00 | 0.00 | 0.00 | 32 | 1010.1 |
| 20260901211502 | 96 | 125 | 2.0 | 8.0 | 0.00 | 0.00 | 0.00 | 33 | 1010.5 |
| 20260901210105 | 99 | 170 | 6.0 | 17.0 | 0.00 | 0.00 | 0.00 | 32 | 1010.6 |
| 20260901204608 | 97 | 205 | 3.0 | 12.0 | 0.00 | 0.00 | 0.00 | 34 | 1010.9 |
| 20260901203107 | 96 | 103 | 3.0 | 12.0 | 0.00 | 0.00 | 0.00 | 35 | 1011.1 |
| 20260901201552 | 96 | 98 | 3.0 | 7.0 | 0.00 | 0.00 | 0.00 | 35 | 1011.4 |
| 20260901200049 | 98 | 181 | 4.0 | 10.0 | 0.00 | 0.00 | 0.00 | 33 | 1011.7 |
| 20260901194550 | 95 | 99 | 2.0 | 9.0 | 0.00 | 0.00 | 0.00 | 35 | 1011.9 |
| 20260901193052 | 97 | 46 | 3.0 | 9.0 | 0.00 | 0.00 | 0.00 | 35 | 1012.2 |
| 20260901191543 | 96 | 150 | 3.0 | 9.0 | 0.00 | 0.00 | 0.00 | 35 | 1012.3 |
| 20260901190041 | 97 | 106 | 2.0 | 10.0 | 0.00 | 0.00 | 0.00 | 35 | 1012.5 |
| 20260901184537 | 96 | 196 | 4.0 | 10.0 | 0.00 | 0.00 | 0.00 | 35 | 1012.7 |
| 20260901183044 | 96 | 82 | 2.0 | 8.0 | 0.00 | 0.00 | 0.00 | 35 | 1013.0 |
| 20260901181534 | 95 | 5 | 4.0 | 11.0 | 0.00 | 0.00 | 0.00 | 36 | 1013.2 |
| 20260901180033 | 95 | 50 | 2.0 | 9.0 | 0.00 | 0.00 | 0.00 | 35 | 1013.5 |
| 20260901174532 | 95 | 5 | 5.0 | 13.0 | 0.00 | 0.00 | 0.00 | 35 | 1013.6 |
| 20260901173047 | 95 | 107 | 4.0 | 11.0 | 0.00 | 0.00 | 0.00 | 35 | 1013.8 |
| 20260901171530 | 93 | 125 | 3.0 | 11.0 | 0.00 | 0.00 | 0.00 | 37 | 1013.9 |
| 20260901170028 | 93 | 150 | 3.0 | 9.0 | 0.00 | 0.00 | 0.00 | 39 | 1014.1 |
| 20260901164526 | 93 | 184 | 5.0 | 10.0 | 0.00 | 0.00 | 0.00 | 40 | 1014.1 |
| 20260901163026 | 94 | 207 | 6.0 | 11.0 | 0.00 | 0.00 | 0.00 | 40 | 1014.0 |
| 20260901161522 | 92 | 205 | 3.0 | 10.0 | 0.00 | 0.00 | 0.00 | 42 | 1014.1 |
| 20260901160027 | 91 | 161 | 6.0 | 10.0 | 0.00 | 0.00 | 0.00 | 42 | 1014.2 |
| 20260901154519 | 89 | 156 | 1.0 | 7.0 | 0.00 | 0.00 | 0.00 | 49 | 1014.1 |
| 20260901153015 | 88 | 156 | 3.0 | 9.0 | 0.00 | 0.00 | 0.00 | 47 | 1014.1 |
| 20260901151513 | 86 | 167 | 3.0 | 7.0 | 0.00 | 0.00 | 0.00 | 51 | 1014.1 |
| 20260901150010 | 86 | 213 | 4.0 | 7.0 | 0.00 | 0.00 | 0.00 | 53 | 1014.0 |
| 20260901144505 | 85 | 224 | 3.0 | 5.0 | 0.00 | 0.00 | 0.00 | 58 | 1014.0 |
| 20260901143103 | 83 | 235 | 2.0 | 7.0 | 0.00 | 0.00 | 0.00 | 65 | 1014.1 |
| 20260901141604 | 80 | 240 | 1.0 | 4.0 | 0.00 | 0.00 | 0.00 | 73 | 1014.2 |
| 20260901140106 | 79 | 241 | 1.0 | 3.0 | 0.00 | 0.00 | 0.00 | 76 | 1014.1 |
| 20260901134612 | 77 | 241 | 0.0 | 4.0 | 0.00 | 0.00 | 0.00 | 81 | 1014.2 |
| 20260901133058 | 75 | 229 | 2.0 | 4.0 | 0.00 | 0.00 | 0.00 | 84 | 1014.2 |
| 20260901131556 | 73 | 226 | 2.0 | 4.0 | 0.00 | 0.00 | 0.00 | 85 | 1014.1 |
| 20260901130053 | 73 | 223 | 0.0 | 0.0 | 0.00 | 0.00 | 0.00 | 85 | 1013.9 |
| 20260901124552 | 72 | 223 | 0.0 | 3.0 | 0.00 | 0.00 | 0.00 | 85 | 1013.7 |
| 20260901123051 | 73 | 223 | 0.0 | 1.0 | 0.00 | 0.00 | 0.00 | 85 | 1013.5 |
| 20260901121550 | 73 | 223 | 0.0 | 3.0 | 0.00 | 0.00 | 0.00 | 85 | 1013.5 |
| 20260901120055 | 73 | 223 | 0.0 | 2.0 | 0.00 | 0.00 | 0.00 | 84 | 1013.4 |
| 20260901114548 | 74 | 223 | 1.0 | 3.0 | 0.00 | 0.00 | 0.00 | 84 | 1013.4 |
| 20260901113048 | 74 | 223 | 0.0 | 2.0 | 0.00 | 0.00 | 0.00 | 84 | 1013.4 |
| 20260901111551 | 74 | 223 | 0.0 | 3.0 | 0.00 | 0.00 | 0.00 | 84 | 1013.5 |
| 20260901110048 | 74 | 223 | 1.0 | 3.0 | 0.00 | 0.00 | 0.00 | 84 | 1013.5 |
| 20260901104542 | 75 | 223 | 2.0 | 4.0 | 0.00 | 0.00 | 0.00 | 83 | 1013.4 |
| 20260901103040 | 75 | 222 | 0.0 | 5.0 | 0.00 | 0.00 | 0.00 | 83 | 1013.3 |
| 20260901101540 | 75 | 226 | 1.0 | 5.0 | 0.00 | 0.00 | 0.00 | 83 | 1013.4 |
| 20260901100039 | 75 | 226 | 1.0 | 5.0 | 0.00 | 0.00 | 0.00 | 82 | 1013.5 |
| 20260901094540 | 75 | 221 | 1.0 | 5.0 | 0.00 | 0.00 | 0.00 | 81 | 1013.6 |
| 20260901093036 | 76 | 229 | 1.0 | 9.0 | 0.00 | 0.00 | 0.00 | 80 | 1013.7 |
| 20260901091535 | 76 | 161 | 0.0 | 2.0 | 0.00 | 0.00 | 0.00 | 78 | 1013.6 |
| 20260901090033 | 76 | 159 | 2.0 | 4.0 | 0.00 | 0.00 | 0.00 | 77 | 1013.5 |
| 20260901084531 | 76 | 36 | 1.0 | 4.0 | 0.00 | 0.00 | 0.00 | 76 | 1013.5 |
| 20260901083030 | 77 | 224 | 2.0 | 10.0 | 0.00 | 0.00 | 0.00 | 75 | 1013.5 |
| 20260901081528 | 77 | 209 | 5.0 | 9.0 | 0.00 | 0.00 | 0.00 | 75 | 1013.5 |
| 20260901080027 | 77 | 226 | 4.0 | 9.0 | 0.00 | 0.00 | 0.00 | 74 | 1013.6 |
| 20260901074529 | 78 | 233 | 0.0 | 5.0 | 0.00 | 0.00 | 0.00 | 72 | 1013.5 |
| 20260901073024 | 78 | 227 | 2.0 | 9.0 | 0.00 | 0.00 | 0.00 | 71 | 1013.5 |
| 20260901071525 | 78 | 215 | 7.0 | 10.0 | 0.00 | 0.00 | 0.00 | 70 | 1013.6 |
| 20260901070023 | 79 | 211 | 6.0 | 11.0 | 0.00 | 0.00 | 0.00 | 69 | 1013.6 |
| 20260901064520 | 79 | 191 | 4.0 | 9.0 | 0.00 | 0.00 | 0.00 | 69 | 1013.6 |
| 20260901063013 | 80 | 169 | 7.0 | 12.0 | 0.00 | 0.00 | 0.00 | 68 | 1013.4 |
| 20260901061510 | 80 | 229 | 2.0 | 9.0 | 0.00 | 0.00 | 0.00 | 66 | 1013.5 |
| 20260901060011 | 81 | 107 | 3.0 | 10.0 | 0.00 | 0.00 | 0.00 | 66 | 1013.3 |
| 20260901054512 | 81 | 245 | 1.0 | 6.0 | 0.00 | 0.00 | 0.00 | 65 | 1013.1 |
| 20260901053004 | 81 | 26 | 4.0 | 11.0 | 0.00 | 0.00 | 0.00 | 65 | 1012.9 |
| 20260901051501 | 82 | 169 | 4.0 | 12.0 | 0.00 | 0.00 | 0.00 | 64 | 1012.8 |
| 20260901050058 | 82 | 234 | 2.0 | 11.0 | 0.00 | 0.00 | 0.00 | 62 | 1012.9 |
| 20260901044607 | 83 | 106 | 2.0 | 14.0 | 0.00 | 0.00 | 0.00 | 60 | 1012.9 |
| 20260901043056 | 83 | 86 | 3.0 | 12.0 | 0.00 | 0.00 | 0.00 | 58 | 1012.7 |
| 20260901041555 | 84 | 56 | 5.0 | 11.0 | 0.00 | 0.00 | 0.00 | 55 | 1012.7 |
| 20260901040110 | 85 | 142 | 4.0 | 12.0 | 0.00 | 0.00 | 0.00 | 53 | 1012.6 |
| 20260901034607 | 85 | 95 | 5.0 | 12.0 | 0.00 | 0.00 | 0.00 | 50 | 1012.3 |
| 20260901033054 | 85 | 26 | 3.0 | 8.0 | 0.00 | 0.00 | 0.00 | 49 | 1012.0 |
| 20260901031553 | 85 | 28 | 3.0 | 8.0 | 0.00 | 0.00 | 0.00 | 49 | 1011.7 |
| 20260901030053 | 85 | 32 | 4.0 | 6.0 | 0.00 | 0.00 | 0.00 | 49 | 1011.7 |
| 20260901024555 | 86 | 29 | 2.0 | 5.0 | 0.00 | 0.00 | 0.00 | 49 | 1011.5 |
| 20260901023104 | 86 | 26 | 3.0 | 8.0 | 0.00 | 0.00 | 0.00 | 49 | 1011.4 |
| 20260901021554 | 86 | 33 | 3.0 | 5.0 | 0.00 | 0.00 | 0.00 | 49 | 1011.2 |
| 20260901020051 | 87 | 29 | 3.0 | 8.0 | 0.00 | 0.00 | 0.00 | 49 | 1011.1 |
| 20260901014554 | 87 | 50 | 2.0 | 6.0 | 0.00 | 0.00 | 0.00 | 48 | 1011.0 |
| 20260901013050 | 88 | 54 | 2.0 | 5.0 | 0.00 | 0.00 | 0.00 | 47 | 1010.9 |
| 20260901011550 | 88 | 53 | 2.0 | 6.0 | 0.00 | 0.00 | 0.00 | 47 | 1010.8 |
| 20260901010050 | 89 | 19 | 3.0 | 9.0 | 0.00 | 0.00 | 0.00 | 46 | 1010.7 |
| 20260901004551 | 90 | 84 | 2.0 | 10.0 | 0.00 | 0.00 | 0.00 | 45 | 1010.6 |
| 20260901003048 | 90 | 153 | 2.0 | 9.0 | 0.00 | 0.00 | 0.00 | 42 | 1010.5 |
| 20260901001548 | 91 | 45 | 3.0 | 9.0 | 0.00 | 0.00 | 0.00 | 40 | 1010.4 |
| 20260901000047 | 91 | 64 | 3.0 | 9.0 | 0.00 | 0.00 | 0.00 | 40 | 1010.2 |
| 20260831234546 | 92 | 65 | 3.0 | 11.0 | 0.00 | 0.00 | 0.00 | 40 | 1010.3 |
| 20260831233045 | 92 | 51 | 3.0 | 9.0 | 0.00 | 0.00 | 0.00 | 40 | 1010.2 |
| 20260831231546 | 93 | 44 | 4.0 | 13.0 | 0.00 | 0.00 | 0.00 | 40 | 1010.1 |
| 20260831230046 | 93 | 171 | 3.0 | 11.0 | 0.00 | 0.00 | 0.00 | 41 | 1010.3 |
| 20260831224543 | 92 | 90 | 3.0 | 10.0 | 0.00 | 0.00 | 0.00 | 42 | 1010.3 |
| 20260831223043 | 93 | 52 | 3.0 | 12.0 | 0.00 | 0.00 | 0.00 | 41 | 1010.4 |
| 20260831221544 | 94 | 117 | 5.0 | 9.0 | 0.00 | 0.00 | 0.00 | 41 | 1010.4 |